TimeCST,TemperatureF,Dew PointF,Humidity,Sea Level PressureIn,VisibilityMPH,Wind Direction,Wind SpeedMPH,Gust SpeedMPH,PrecipitationIn,Events,Conditions,WindDirDegrees,DateUTC
12:15 AM,16.7,12.6,84,30.07,-9999.0,South,5.8,-,N/A,,Clear,180,2013-02-04 06:15:00
12:35 AM,18.3,14.4,85,30.07,-9999.0,South,4.6,-,N/A,,Mostly Cloudy,170,2013-02-04 06:35:00
12:55 AM,21.7,18.0,85,30.06,-9999.0,Calm,Calm,-,N/A,,Overcast,0,2013-02-04 06:55:00
1:15 AM,23.5,18.5,81,30.05,-9999.0,SSE,3.5,-,N/A,,Overcast,150,2013-02-04 07:15:00
1:35 AM,23.7,18.7,81,30.03,-9999.0,SSE,6.9,-,N/A,,Overcast,150,2013-02-04 07:35:00
1:55 AM,23.7,18.5,80,30.03,-9999.0,SE,4.6,-,N/A,,Overcast,130,2013-02-04 07:55:00
2:15 AM,22.8,18.0,82,30.02,-9999.0,SE,4.6,-,N/A,,Overcast,130,2013-02-04 08:15:00
2:35 AM,22.1,18.0,84,30.02,-9999.0,SE,4.6,-,N/A,,Overcast,130,2013-02-04 08:35:00
2:55 AM,22.5,18.1,83,30.00,-9999.0,SE,6.9,-,N/A,,Overcast,140,2013-02-04 08:55:00
3:15 AM,23.0,18.9,84,30.00,-9999.0,SSE,5.8,-,N/A,,Overcast,150,2013-02-04 09:15:00
4:55 AM,26.6,20.1,77,29.94,-9999.0,SSE,11.5,-,N/A,,Overcast,160,2013-02-04 10:55:00
5:15 AM,27.0,20.3,76,29.93,-9999.0,SSE,16.1,-,N/A,,Overcast,160,2013-02-04 11:15:00
5:35 AM,27.0,20.3,76,29.92,-9999.0,SSE,16.1,24.2,N/A,,Overcast,160,2013-02-04 11:35:00
5:55 AM,27.0,20.7,77,29.91,10.0,SSE,13.8,-,N/A,,Overcast,160,2013-02-04 11:55:00
6:15 AM,27.3,20.8,77,29.90,-9999.0,SSE,12.7,-,N/A,,Overcast,160,2013-02-04 12:15:00
6:35 AM,27.5,21.0,77,29.90,-9999.0,South,13.8,-,N/A,,Overcast,170,2013-02-04 12:35:00
6:55 AM,27.9,21.2,76,29.89,-9999.0,SSE,15.0,-,N/A,,Overcast,160,2013-02-04 12:55:00
7:15 AM,27.9,21.2,76,29.88,10.0,SSE,13.8,-,N/A,,Overcast,160,2013-02-04 13:15:00
7:35 AM,28.2,21.6,76,29.87,-9999.0,South,15.0,-,N/A,,Overcast,170,2013-02-04 13:35:00
7:55 AM,28.9,22.1,76,29.87,-9999.0,South,12.7,16.1,N/A,,Overcast,170,2013-02-04 13:55:00
8:15 AM,29.3,22.6,76,29.87,10.0,SSE,6.9,-,N/A,,Overcast,160,2013-02-04 14:15:00
8:35 AM,30.0,23.0,75,29.87,10.0,South,12.7,17.3,N/A,,Overcast,170,2013-02-04 14:35:00
8:55 AM,30.2,23.7,77,29.86,10.0,South,12.7,-,N/A,,Overcast,170,2013-02-04 14:55:00
9:15 AM,31.3,24.3,75,29.85,10.0,South,15.0,-,N/A,,Overcast,180,2013-02-04 15:15:00
9:35 AM,32.5,24.8,73,29.84,10.0,South,17.3,-,N/A,,Overcast,190,2013-02-04 15:35:00
9:55 AM,33.4,25.3,72,29.84,5.0,SSW,12.7,-,N/A,,Haze,200,2013-02-04 15:55:00
10:15 AM,33.8,25.7,72,29.84,5.0,SSW,17.3,-,N/A,,Haze,200,2013-02-04 16:15:00
10:35 AM,34.3,25.9,71,29.83,5.0,SSW,19.6,26.5,N/A,,Haze,200,2013-02-04 16:35:00
10:55 AM,34.2,26.6,74,29.83,5.0,SSW,18.4,23.0,N/A,,Haze,200,2013-02-04 16:55:00
11:15 AM,34.7,27.1,74,29.83,5.0,SSW,15.0,23.0,N/A,,Haze,210,2013-02-04 17:15:00
11:35 AM,35.2,27.7,74,29.83,5.0,SSW,12.7,-,N/A,,Haze,200,2013-02-04 17:35:00
11:55 AM,36.3,28.4,73,29.82,5.0,SSW,15.0,-,N/A,,Haze,210,2013-02-04 17:55:00
12:15 PM,38.1,29.5,71,29.82,5.0,SW,12.7,-,N/A,,Haze,220,2013-02-04 18:15:00
12:35 PM,38.3,29.8,72,29.81,-9999.0,SW,10.4,16.1,N/A,,Scattered Clouds,220,2013-02-04 18:35:00
12:55 PM,39.0,31.1,73,29.80,5.0,SW,15.0,-,N/A,,Scattered Clouds,220,2013-02-04 18:55:00
1:15 PM,39.2,31.6,74,29.79,-9999.0,SSW,11.5,-,N/A,,Clear,210,2013-02-04 19:15:00
1:35 PM,41.0,32.4,71,29.79,-9999.0,SW,9.2,-,N/A,,Scattered Clouds,220,2013-02-04 19:35:00
1:55 PM,41.5,32.2,69,29.79,-9999.0,SW,12.7,-,N/A,,Clear,230,2013-02-04 19:55:00
2:15 PM,42.4,32.7,68,29.79,-9999.0,SW,10.4,-,N/A,,Clear,230,2013-02-04 20:15:00
2:35 PM,43.0,33.1,68,29.79,-9999.0,WSW,10.4,-,N/A,,Clear,240,2013-02-04 20:35:00
2:55 PM,43.2,33.1,68,29.79,-9999.0,WSW,9.2,-,N/A,,Clear,250,2013-02-04 20:55:00
3:15 PM,44.2,34.7,69,29.80,7.0,West,11.5,-,N/A,,Clear,280,2013-02-04 21:15:00
3:35 PM,41.9,33.8,73,29.81,-9999.0,NW,9.2,-,N/A,,Mostly Cloudy,320,2013-02-04 21:35:00
3:55 PM,41.4,32.5,71,29.81,-9999.0,NNW,6.9,-,N/A,,Mostly Cloudy,330,2013-02-04 21:55:00
4:15 PM,40.5,32.2,72,29.81,-9999.0,NNW,11.5,-,N/A,,Clear,330,2013-02-04 22:15:00
4:35 PM,38.7,31.8,76,29.82,5.0,NNW,6.9,-,N/A,,Clear,330,2013-02-04 22:35:00
4:55 PM,37.4,30.7,77,29.82,-9999.0,NNW,5.8,-,N/A,,Clear,330,2013-02-04 22:55:00
5:15 PM,36.0,30.2,80,29.83,-9999.0,NNW,5.8,-,N/A,,Clear,340,2013-02-04 23:15:00
5:35 PM,34.7,29.8,82,29.84,7.0,NNW,4.6,-,N/A,,Clear,330,2013-02-04 23:35:00
5:55 PM,33.4,29.8,87,29.85,7.0,NNW,8.1,-,N/A,,Clear,330,2013-02-04 23:55:00
6:15 PM,32.9,29.3,87,29.87,7.0,NNW,8.1,-,N/A,,Clear,340,2013-02-05 00:15:00
6:35 PM,32.2,29.3,89,29.88,5.0,NNW,9.2,-,N/A,,Clear,330,2013-02-05 00:35:00
6:55 PM,32.0,28.9,88,29.89,7.0,NNW,8.1,-,N/A,,Clear,340,2013-02-05 00:55:00
7:15 PM,32.0,28.4,87,29.90,5.0,North,6.9,-,N/A,,Clear,350,2013-02-05 01:15:00
7:35 PM,31.5,27.9,87,29.91,5.0,NNW,6.9,-,N/A,,Clear,340,2013-02-05 01:35:00
7:55 PM,31.1,27.9,88,29.92,5.0,NNW,4.6,-,N/A,,Clear,340,2013-02-05 01:55:00
8:15 PM,30.7,28.0,90,29.91,5.0,NNW,4.6,-,N/A,,Scattered Clouds,340,2013-02-05 02:15:00
8:35 PM,30.7,28.0,90,29.91,-9999.0,NNW,4.6,-,N/A,,Unknown,340,2013-02-05 02:35:00
8:55 PM,30.9,27.5,87,29.91,-9999.0,North,9.2,-,N/A,,Mostly Cloudy,350,2013-02-05 02:55:00
9:15 PM,30.9,26.8,85,29.92,-9999.0,North,6.9,-,N/A,,Overcast,350,2013-02-05 03:15:00
9:35 PM,30.9,26.6,84,29.93,-9999.0,North,6.9,-,N/A,,Overcast,350,2013-02-05 03:35:00
9:55 PM,30.6,25.3,81,29.92,-9999.0,North,6.9,-,N/A,,Overcast,10,2013-02-05 03:55:00
10:15 PM,30.2,25.0,81,29.92,-9999.0,North,6.9,-,N/A,,Scattered Clouds,10,2013-02-05 04:15:00
10:35 PM,29.8,24.8,81,29.93,-9999.0,North,3.5,-,N/A,,Clear,360,2013-02-05 04:35:00
10:55 PM,29.5,24.8,83,29.94,-9999.0,North,3.5,-,N/A,,Unknown,350,2013-02-05 04:55:00
11:15 PM,29.3,24.8,83,29.94,-9999.0,NNW,3.5,-,N/A,,Unknown,340,2013-02-05 05:15:00
11:35 PM,29.3,24.8,83,29.95,-9999.0,North,4.6,-,N/A,,Unknown,350,2013-02-05 05:35:00
11:55 PM,29.1,24.6,83,29.93,-9999.0,North,3.5,-,N/A,,Clear,10,2013-02-05 05:55:00